When you browse on this site, cookies collect data to enhance your experience and personalize the content and advertising you see.
Visit our Privacy Policy to learn more. By continuing to use the site, you agree to this use of cookies and data.

Hourly Weather Bolshoe Goltino

Today, 12 August, Wednesday

Time Temperature Precipitation Wind Pressure Humidity
00:00 +11°C° 0 mm 3 mps 740 mmHg 94%
01:00 +11°C° 0 mm 3 mps 740 mmHg 94%
02:00 +12°C° 0 mm 3 mps 740 mmHg 96%
03:00 +11°C° 0.1 mm 3 mps 740 mmHg 96%
04:00 +11°C° 0.1 mm 3 mps 740 mmHg 96%
05:00 +11°C° 0.1 mm 3 mps 740 mmHg 96%
06:00 +11°C° 0 mm 4 mps 740 mmHg 95%
07:00 +12°C° 0 mm 4 mps 740 mmHg 94%
08:00 +12°C° 0 mm 4 mps 740 mmHg 93%
09:00 +12°C° 0.1 mm 4 mps 740 mmHg 92%
10:00 +12°C° 0.1 mm 4 mps 740 mmHg 91%
11:00 +12°C° 0.1 mm 4 mps 741 mmHg 90%
12:00 +13°C° 0.1 mm 4 mps 741 mmHg 85%
13:00 +14°C° 0.1 mm 4 mps 741 mmHg 79%
14:00 +15°C° 0.1 mm 4 mps 741 mmHg 74%
15:00 +15°C° 0 mm 4 mps 741 mmHg 74%
16:00 +16°C° 0 mm 3 mps 741 mmHg 74%
17:00 +14°C° 0 mm 3 mps 741 mmHg 74%
18:00 +14°C° 0 mm 3 mps 741 mmHg 77%
19:00 +14°C° 0 mm 2 mps 741 mmHg 81%
20:00 +13°C° 0 mm 2 mps 741 mmHg 85%
21:00 +12°C° 0 mm 2 mps 741 mmHg 88%
22:00 +12°C° 0 mm 2 mps 741 mmHg 92%
23:00 +10°C° 0 mm 2 mps 741 mmHg 96%

Tomorrow, 13 August, Thursday

Time Temperature Precipitation Wind Pressure Humidity
00:00 +9°C° 0 mm 2 mps 741 mmHg 94%
01:00 +9°C° 0 mm 2 mps 741 mmHg 93%
02:00 +10°C° 0 mm 1 mps 741 mmHg 92%
03:00 +10°C° 0 mm 1 mps 741 mmHg 90%
04:00 +10°C° 0 mm 1 mps 741 mmHg 87%
05:00 +10°C° 0 mm 1 mps 741 mmHg 85%
06:00 +11°C° 0 mm 1 mps 741 mmHg 81%
07:00 +12°C° 0 mm 2 mps 741 mmHg 78%
08:00 +13°C° 0 mm 2 mps 740 mmHg 74%
09:00 +14°C° 0 mm 2 mps 740 mmHg 67%
10:00 +14°C° 0 mm 2 mps 740 mmHg 61%
11:00 +14°C° 0 mm 3 mps 740 mmHg 54%
12:00 +14°C° 0 mm 3 mps 740 mmHg 54%
13:00 +16°C° 0 mm 3 mps 740 mmHg 54%
14:00 +16°C° 0 mm 3 mps 740 mmHg 54%
15:00 +16°C° 0 mm 3 mps 740 mmHg 56%
16:00 +14°C° 0 mm 3 mps 740 mmHg 57%
17:00 +15°C° 0 mm 2 mps 740 mmHg 59%
18:00 +14°C° 0 mm 2 mps 740 mmHg 67%
19:00 +12°C° 0 mm 2 mps 740 mmHg 75%
20:00 +9°C° 0 mm 2 mps 740 mmHg 83%
21:00 +9°C° 0 mm 2 mps 740 mmHg 85%
22:00 +8°C° 0 mm 2 mps 740 mmHg 87%
23:00 +8°C° 0 mm 2 mps 741 mmHg 89%

Day after tomorrow, 14 August, Friday

Time Temperature Precipitation Wind Pressure Humidity
00:00 +7°C° 0 mm 2 mps 741 mmHg 90%
01:00 +7°C° 0 mm 2 mps 741 mmHg 91%
02:00 +7°C° 0 mm 2 mps 741 mmHg 93%
03:00 +6°C° 0 mm 2 mps 741 mmHg 93%
04:00 +6°C° 0 mm 2 mps 741 mmHg 93%
05:00 +6°C° 0 mm 2 mps 741 mmHg 93%
06:00 +8°C° 0 mm 2 mps 741 mmHg 84%
07:00 +12°C° 0 mm 2 mps 741 mmHg 75%
08:00 +14°C° 0 mm 2 mps 742 mmHg 66%
09:00 +14°C° 0 mm 3 mps 742 mmHg 61%
10:00 +16°C° 0 mm 3 mps 741 mmHg 56%
11:00 +17°C° 0 mm 3 mps 741 mmHg 51%
12:00 +18°C° 0 mm 3 mps 741 mmHg 49%
13:00 +18°C° 0 mm 2 mps 741 mmHg 48%
14:00 +19°C° 0 mm 2 mps 741 mmHg 47%
15:00 +19°C° 0 mm 2 mps 741 mmHg 50%
16:00 +18°C° 0 mm 2 mps 741 mmHg 53%
17:00 +18°C° 0 mm 2 mps 741 mmHg 56%
18:00 +16°C° 0 mm 1 mps 741 mmHg 63%
19:00 +14°C° 0 mm 1 mps 741 mmHg 71%
20:00 +12°C° 0 mm 1 mps 741 mmHg 78%
21:00 +12°C° 0 mm 1 mps 742 mmHg 80%
22:00 +11°C° 0 mm 1 mps 742 mmHg 82%
23:00 +11°C° 0 mm 1 mps 742 mmHg 84%

15 August, Saturday

Time Temperature Precipitation Wind Pressure Humidity
00:00 +10°C° 0 mm 1 mps 742 mmHg 84%
01:00 +10°C° 0 mm 1 mps 742 mmHg 84%
02:00 +10°C° 0 mm 1 mps 742 mmHg 84%
03:00 +10°C° 0 mm 1 mps 742 mmHg 85%
04:00 +10°C° 0 mm 1 mps 742 mmHg 86%
05:00 +10°C° 0 mm 1 mps 742 mmHg 86%
06:00 +12°C° 0 mm 1 mps 742 mmHg 79%
07:00 +14°C° 0 mm 1 mps 742 mmHg 71%
08:00 +16°C° 0 mm 1 mps 742 mmHg 64%
09:00 +19°C° 0 mm 1 mps 742 mmHg 60%
10:00 +19°C° 0 mm 2 mps 742 mmHg 56%
11:00 +20°C° 0 mm 2 mps 742 mmHg 53%
12:00 +20°C° 0 mm 2 mps 742 mmHg 55%
13:00 +21°C° 0 mm 1 mps 741 mmHg 57%
14:00 +21°C° 0 mm 1 mps 741 mmHg 59%
15:00 +21°C° 0 mm 1 mps 741 mmHg 65%
16:00 +20°C° 0 mm 1 mps 741 mmHg 71%
17:00 +19°C° 0 mm 1 mps 741 mmHg 77%
18:00 +18°C° 0.2 mm 1 mps 741 mmHg 82%
19:00 +16°C° 0.2 mm 1 mps 741 mmHg 87%
20:00 +15°C° 0.2 mm 1 mps 740 mmHg 91%
21:00 +15°C° 0.1 mm 1 mps 740 mmHg 93%
22:00 +15°C° 0.1 mm 1 mps 740 mmHg 94%
23:00 +15°C° 0.1 mm 1 mps 740 mmHg 96%

16 August, Sunday

Time Temperature Precipitation Wind Pressure Humidity
00:00 +15°C° 0 mm 1 mps 740 mmHg 96%
01:00 +14°C° 0 mm 1 mps 740 mmHg 97%
02:00 +14°C° 0 mm 2 mps 740 mmHg 97%
03:00 +14°C° 0 mm 2 mps 740 mmHg 97%
04:00 +14°C° 0 mm 2 mps 739 mmHg 98%
05:00 +14°C° 0 mm 2 mps 739 mmHg 98%
06:00 +15°C° 0 mm 2 mps 739 mmHg 96%
07:00 +17°C° 0 mm 2 mps 739 mmHg 93%
08:00 +18°C° 0 mm 2 mps 739 mmHg 91%
09:00 +20°C° 0.4 mm 3 mps 739 mmHg 85%
10:00 +21°C° 0.4 mm 3 mps 739 mmHg 79%
11:00 +23°C° 0.4 mm 4 mps 739 mmHg 73%
12:00 +23°C° 0.1 mm 4 mps 739 mmHg 66%
13:00 +25°C° 0.1 mm 4 mps 739 mmHg 60%
14:00 +26°C° 0.1 mm 4 mps 739 mmHg 53%
15:00 +26°C° 0 mm 3 mps 739 mmHg 56%
16:00 +25°C° 0 mm 3 mps 739 mmHg 58%
17:00 +25°C° 0 mm 2 mps 739 mmHg 61%
18:00 +21°C° 0 mm 2 mps 739 mmHg 67%
19:00 +19°C° 0 mm 2 mps 739 mmHg 72%
20:00 +17°C° 0 mm 2 mps 739 mmHg 78%
21:00 +16°C° 0 mm 2 mps 739 mmHg 80%
22:00 +16°C° 0 mm 1 mps 740 mmHg 82%
23:00 +15°C° 0 mm 1 mps 740 mmHg 85%

17 August, Monday

Time Temperature Precipitation Wind Pressure Humidity
00:00 +15°C° 0 mm 1 mps 740 mmHg 86%
01:00 +14°C° 0 mm 1 mps 740 mmHg 88%
02:00 +14°C° 0 mm 1 mps 740 mmHg 89%
03:00 +14°C° 0 mm 1 mps 740 mmHg 90%
04:00 +14°C° 0 mm 1 mps 741 mmHg 90%
05:00 +14°C° 0 mm 1 mps 741 mmHg 91%
06:00 +16°C° 0 mm 2 mps 741 mmHg 84%
07:00 +18°C° 0 mm 2 mps 741 mmHg 77%
08:00 +20°C° 0 mm 2 mps 741 mmHg 70%
09:00 +23°C° 0 mm 2 mps 741 mmHg 64%
10:00 +24°C° 0 mm 2 mps 742 mmHg 59%
11:00 +26°C° 0 mm 2 mps 742 mmHg 54%
12:00 +26°C° 0.2 mm 2 mps 741 mmHg 54%
13:00 +26°C° 0.2 mm 3 mps 741 mmHg 55%
14:00 +26°C° 0.2 mm 3 mps 741 mmHg 56%
15:00 +26°C° 0 mm 2 mps 741 mmHg 59%
16:00 +26°C° 0 mm 2 mps 741 mmHg 61%
17:00 +26°C° 0 mm 1 mps 741 mmHg 64%
18:00 +24°C° 0 mm 1 mps 741 mmHg 71%
19:00 +22°C° 0 mm 1 mps 740 mmHg 78%
20:00 +19°C° 0 mm 1 mps 740 mmHg 84%
21:00 +19°C° 0 mm 1 mps 740 mmHg 86%
22:00 +18°C° 0 mm 1 mps 740 mmHg 87%
23:00 +16°C° 0 mm 1 mps 740 mmHg 89%
Show more